Meteo pe oră la Dziaduszyn

Astăzi, 5 Martie, Vineri

Timp Temperatura Precipitaţii Vânt Presiune Umiditate
00:00 -4°C° 0 mm 2 m/s 748 mmHg 80%
01:00 -4°C° 0 mm 2 m/s 748 mmHg 79%
02:00 -4°C° 0 mm 2 m/s 749 mmHg 78%
03:00 -4°C° 0 mm 2 m/s 749 mmHg 77%
04:00 -4°C° 0 mm 2 m/s 749 mmHg 76%
05:00 -4°C° 0 mm 2 m/s 749 mmHg 76%
06:00 -4°C° 0 mm 2 m/s 749 mmHg 76%
07:00 -4°C° 0 mm 2 m/s 750 mmHg 76%
08:00 -4°C° 0 mm 3 m/s 750 mmHg 70%
09:00 -2°C° 0 mm 3 m/s 750 mmHg 64%
10:00 -1°C° 0 mm 3 m/s 751 mmHg 57%
11:00 0°C° 0 mm 3 m/s 751 mmHg 50%
12:00 0°C° 0 mm 3 m/s 751 mmHg 43%
13:00 +1°C° 0 mm 3 m/s 751 mmHg 36%
14:00 +1°C° 0 mm 3 m/s 752 mmHg 39%
15:00 +1°C° 0 mm 2 m/s 752 mmHg 42%
16:00 +1°C° 0 mm 2 m/s 752 mmHg 45%
17:00 -1°C° 0 mm 2 m/s 752 mmHg 53%
18:00 -1°C° 0 mm 3 m/s 752 mmHg 60%
19:00 -2°C° 0 mm 3 m/s 753 mmHg 68%
20:00 -2°C° 0.1 mm 3 m/s 753 mmHg 71%
21:00 -4°C° 0.1 mm 3 m/s 754 mmHg 74%
22:00 -4°C° 0.1 mm 4 m/s 754 mmHg 77%
23:00 -4°C° 0 mm 4 m/s 754 mmHg 76%

Mâine, 6 Martie, Sâmbătă

Timp Temperatura Precipitaţii Vânt Presiune Umiditate
00:00 -5°C° 0 mm 4 m/s 755 mmHg 75%
01:00 -5°C° 0 mm 4 m/s 755 mmHg 74%
02:00 -5°C° 0 mm 3 m/s 755 mmHg 75%
03:00 -6°C° 0 mm 3 m/s 755 mmHg 77%
04:00 -6°C° 0 mm 3 m/s 755 mmHg 78%
05:00 -6°C° 0 mm 3 m/s 756 mmHg 74%
06:00 -5°C° 0 mm 2 m/s 756 mmHg 70%
07:00 -4°C° 0 mm 2 m/s 757 mmHg 66%
08:00 -3°C° 0 mm 2 m/s 757 mmHg 62%
09:00 -2°C° 0 mm 3 m/s 757 mmHg 57%
10:00 -1°C° 0 mm 3 m/s 757 mmHg 53%
11:00 0°C° 0 mm 3 m/s 757 mmHg 51%
12:00 -1°C° 0 mm 4 m/s 756 mmHg 50%
13:00 0°C° 0 mm 4 m/s 756 mmHg 48%
14:00 0°C° 0 mm 4 m/s 755 mmHg 49%
15:00 0°C° 0 mm 4 m/s 755 mmHg 50%
16:00 0°C° 0 mm 4 m/s 754 mmHg 51%
17:00 -1°C° 0 mm 5 m/s 754 mmHg 55%
18:00 -2°C° 0 mm 5 m/s 753 mmHg 58%
19:00 -2°C° 0 mm 5 m/s 752 mmHg 61%
20:00 -3°C° 0 mm 6 m/s 752 mmHg 71%
21:00 -3°C° 0 mm 7 m/s 751 mmHg 80%
22:00 -3°C° 0 mm 7 m/s 750 mmHg 90%
23:00 -4°C° 0.1 mm 8 m/s 749 mmHg 91%

Poimâine, 7 Martie, Duminică

Timp Temperatura Precipitaţii Vânt Presiune Umiditate
00:00 -4°C° 0.1 mm 8 m/s 749 mmHg 92%
01:00 -4°C° 0.1 mm 9 m/s 748 mmHg 92%
02:00 -4°C° 0.4 mm 9 m/s 747 mmHg 93%
03:00 -4°C° 0.4 mm 9 m/s 747 mmHg 94%
04:00 -4°C° 0.4 mm 9 m/s 746 mmHg 95%
05:00 -4°C° 0.6 mm 9 m/s 746 mmHg 95%
06:00 -2°C° 0.6 mm 8 m/s 746 mmHg 95%
07:00 -2°C° 0.6 mm 8 m/s 746 mmHg 96%
08:00 -2°C° 0.7 mm 7 m/s 746 mmHg 96%
09:00 -3°C° 0.7 mm 7 m/s 746 mmHg 96%
10:00 -3°C° 0.7 mm 6 m/s 746 mmHg 96%
11:00 -3°C° 0.8 mm 6 m/s 746 mmHg 96%
12:00 -3°C° 0.8 mm 6 m/s 746 mmHg 96%
13:00 -3°C° 0.8 mm 6 m/s 745 mmHg 96%
14:00 -2°C° 0.6 mm 5 m/s 745 mmHg 96%
15:00 -2°C° 0.6 mm 5 m/s 745 mmHg 96%
16:00 -2°C° 0.6 mm 5 m/s 745 mmHg 96%
17:00 -3°C° 0.4 mm 4 m/s 745 mmHg 94%
18:00 -4°C° 0.4 mm 4 m/s 745 mmHg 92%
19:00 -4°C° 0.4 mm 3 m/s 745 mmHg 91%
20:00 -4°C° 0 mm 3 m/s 745 mmHg 90%
21:00 -5°C° 0 mm 3 m/s 745 mmHg 89%
22:00 -4°C° 0 mm 2 m/s 745 mmHg 89%
23:00 -5°C° 0 mm 2 m/s 745 mmHg 87%

8 Martie, Luni

Timp Temperatura Precipitaţii Vânt Presiune Umiditate
00:00 -6°C° 0 mm 3 m/s 745 mmHg 85%
01:00 -6°C° 0 mm 3 m/s 745 mmHg 83%
02:00 -6°C° 0 mm 3 m/s 746 mmHg 84%
03:00 -6°C° 0 mm 3 m/s 746 mmHg 85%
04:00 -6°C° 0 mm 3 m/s 746 mmHg 86%
05:00 -6°C° 0 mm 3 m/s 746 mmHg 87%
06:00 -5°C° 0 mm 2 m/s 747 mmHg 88%
07:00 -5°C° 0 mm 2 m/s 747 mmHg 89%
08:00 -5°C° 0.1 mm 3 m/s 747 mmHg 84%
09:00 -4°C° 0.1 mm 3 m/s 748 mmHg 79%
10:00 -4°C° 0.1 mm 4 m/s 748 mmHg 73%
11:00 -3°C° 0.1 mm 4 m/s 749 mmHg 71%
12:00 -3°C° 0.1 mm 4 m/s 749 mmHg 69%
13:00 -4°C° 0.1 mm 5 m/s 749 mmHg 67%
14:00 -4°C° 0 mm 5 m/s 750 mmHg 67%
15:00 -4°C° 0 mm 5 m/s 750 mmHg 67%
16:00 -5°C° 0 mm 5 m/s 750 mmHg 67%
17:00 -5°C° 0 mm 4 m/s 751 mmHg 72%
18:00 -5°C° 0 mm 4 m/s 751 mmHg 76%
19:00 -6°C° 0 mm 3 m/s 752 mmHg 80%
20:00 -7°C° 0 mm 3 m/s 752 mmHg 80%
21:00 -7°C° 0 mm 3 m/s 753 mmHg 80%
22:00 -6°C° 0 mm 2 m/s 753 mmHg 80%
23:00 -6°C° 0 mm 2 m/s 754 mmHg 80%

9 Martie, Marţi

Timp Temperatura Precipitaţii Vânt Presiune Umiditate
00:00 -7°C° 0 mm 2 m/s 754 mmHg 80%
01:00 -7°C° 0 mm 2 m/s 754 mmHg 80%
02:00 -7°C° 0 mm 2 m/s 755 mmHg 80%
03:00 -7°C° 0 mm 2 m/s 755 mmHg 80%
04:00 -7°C° 0 mm 2 m/s 755 mmHg 79%
05:00 -7°C° 0 mm 2 m/s 755 mmHg 78%
06:00 -8°C° 0 mm 2 m/s 756 mmHg 77%
07:00 -8°C° 0 mm 2 m/s 756 mmHg 76%
08:00 -7°C° 0 mm 2 m/s 756 mmHg 70%
09:00 -6°C° 0 mm 2 m/s 757 mmHg 64%
10:00 -6°C° 0 mm 2 m/s 757 mmHg 58%
11:00 -5°C° 0 mm 2 m/s 757 mmHg 55%
12:00 -5°C° 0 mm 2 m/s 758 mmHg 51%
13:00 -4°C° 0 mm 2 m/s 758 mmHg 48%
14:00 -4°C° 0 mm 2 m/s 758 mmHg 48%
15:00 -2°C° 0 mm 1 m/s 758 mmHg 48%
16:00 -2°C° 0 mm 1 m/s 758 mmHg 49%
17:00 -3°C° 0 mm 1 m/s 758 mmHg 52%
18:00 -4°C° 0 mm 1 m/s 758 mmHg 55%
19:00 -6°C° 0 mm 1 m/s 758 mmHg 59%
20:00 -6°C° 0 mm 1 m/s 759 mmHg 60%
21:00 -6°C° 0 mm 1 m/s 759 mmHg 62%
22:00 -6°C° 0 mm 1 m/s 759 mmHg 63%
23:00 -8°C° 0 mm 2 m/s 759 mmHg 64%

10 Martie, Miercuri

Timp Temperatura Precipitaţii Vânt Presiune Umiditate
00:00 -8°C° 0 mm 2 m/s 759 mmHg 65%
01:00 -8°C° 0 mm 2 m/s 759 mmHg 67%
02:00 -8°C° 0 mm 2 m/s 759 mmHg 68%
03:00 -8°C° 0 mm 2 m/s 759 mmHg 70%
04:00 -10°C° 0 mm 3 m/s 759 mmHg 72%
05:00 -9°C° 0 mm 3 m/s 759 mmHg 71%
06:00 -9°C° 0 mm 3 m/s 758 mmHg 71%
07:00 -9°C° 0 mm 3 m/s 758 mmHg 70%
08:00 -9°C° 0 mm 4 m/s 758 mmHg 65%
09:00 -7°C° 0 mm 4 m/s 758 mmHg 60%
10:00 -6°C° 0 mm 5 m/s 758 mmHg 55%
11:00 -5°C° 0 mm 5 m/s 757 mmHg 52%
12:00 -4°C° 0 mm 5 m/s 757 mmHg 49%
13:00 -2°C° 0 mm 5 m/s 757 mmHg 46%
14:00 -2°C° 0 mm 5 m/s 756 mmHg 47%
15:00 -2°C° 0 mm 5 m/s 755 mmHg 48%
16:00 -2°C° 0 mm 5 m/s 755 mmHg 48%
17:00 -4°C° 0 mm 5 m/s 754 mmHg 49%
18:00 -5°C° 0 mm 6 m/s 753 mmHg 51%
19:00 -5°C° 0 mm 6 m/s 753 mmHg 52%
20:00 -5°C° 0 mm 6 m/s 752 mmHg 50%
21:00 -6°C° 0 mm 7 m/s 751 mmHg 49%
22:00 -6°C° 0 mm 7 m/s 751 mmHg 48%
23:00 -6°C° 0 mm 8 m/s 750 mmHg 48%
Arată mai mult

Formular de consimțământ

Meteoprog și furnizorii noștri de servicii pot stoca și accesa date personale, precum cookies, identificatori de dispozitiv sau alte tehnologii similare pe dispozitivul dumneavoastră și procesa astfel de date pentru a personaliza conținutul și reclamele, dar și pentru a oferi caracteristici de social media și pentru a analiza traficul.

  • Stocarea și/sau accesarea informațiilor pe dispozitivul dumneavoastră

    Cookies, identificatori de dispozitiv sau alte informații pot fi stocate sau accesate pe dispozitiv în scopurile indicate mai sus.

  • Reclame și conținut personalizat, evaluarea reclamelor și a conținutului, informații despre audiențe și dezvoltarea produselor

    Reclamele și conținutul pot fi personalizate pe baza unui profil. Pot fi adăugate date suplimentare pentru a personaliza mai bine reclamele și conținutul. Performanța reclamelor și conținutului poate fi măsurată. Pot fi obținute informații despre utilizatorii care au văzut reclamele și conținutul. Aceste date pot fi utilizate pentru a dezvolta sau îmbunătăți experiența utilizatorilor, sistemele și software-ul.

Dând clic pe ‘Sunt de acord’, permiteți utilizarea cookie-urilor menționate, a identificatorilor de dispozitiv, balizelor web sau altor tehnologii similare. Setările pot fi modificate din browser-ul dispozitivului dumneavoastră.

În anumite scopuri, interesele legitime pot prima asupra consimțământului. Puteți citi mai multe informații în acest sens în Politica privind Confidențialitatea Datelor și Cookie.